Theta_e
316 315 315 315 315 314 315 313 314 313 312 312 312 312 312 312 312 313 313 313 314 314 314 315 315 315 315 312 310 317 330 325 319 317 314 310 307 306 302 304 306 304 305 307 308 309 308
315 315 315 315 315 314 314 313 312 312 311 312 311 311 311 312 312 312 312 313 314 314 314 314 315 315 312 305 319 317 317 316 316 313 312 310 308 309 305 304 303 306 306 306 307 307 308
315 315 315 315 315 314 313 311 311 311 311 311 311 311 311 311 311 312 312 314 314 314 315 315 316 315 309 309 315 319 318 315 316 312 308 311 310 307 306 303 307 305 301 303 304 305 305
315 315 315 315 314 314 312 311 311 311 310 311 311 311 310 311 311 312 313 313 314 316 316 316 316 315 307 316 316 315 317 314 314 313 311 311 311 307 305 306 304 300 301 296 302 304 305
315 314 315 314 314 313 312 311 310 310 310 310 310 311 310 311 311 312 312 312 314 318 318 316 314 313 308 314 308 314 315 311 312 311 311 311 308 303 304 299 297 299 293 295 298 304 304
314 314 314 315 313 313 312 311 311 310 310 310 310 311 310 311 312 312 312 312 318 314 316 317 317 309 312 309 309 312 315 313 308 308 307 306 305 300 300 298 290 293 295 297 297 302 303
313 314 314 313 313 313 312 311 310 310 310 310 310 310 310 312 312 312 312 317 312 312 315 311 310 310 310 311 314 310 312 309 308 305 299 304 299 296 299 301 301 300 298 296 299 303 301
313 313 313 313 312 312 312 311 310 310 310 310 310 310 311 312 312 312 312 314 311 311 304 312 313 309 311 312 305 308 312 304 303 298 302 300 296 301 302 301 299 299 296 295 298 301 300
312 312 313 312 312 311 312 311 310 310 310 310 310 310 311 312 312 311 316 312 317 316 304 308 310 306 307 310 304 306 308 305 300 299 300 297 300 303 301 299 297 297 295 295 295 299 300
312 312 312 313 312 311 311 311 310 310 310 310 310 310 311 311 309 317 314 317 316 318 299 304 303 305 308 308 303 310 311 306 302 298 300 299 303 301 299 296 298 293 299 298 296 295 290
311 312 312 312 312 312 311 311 309 310 309 309 309 310 310 310 314 314 315 317 317 315 291 303 304 312 309 304 305 305 311 306 299 299 300 297 299 298 297 297 299 295 300 297 296 294 293
311 311 311 312 312 312 310 310 309 309 309 309 309 309 309 316 316 319 317 318 317 301 292 300 304 302 301 304 304 306 305 308 306 300 301 300 304 301 300 301 301 301 297 297 296 294 287
310 311 311 312 312 312 311 310 309 309 308 308 308 307 307 315 311 318 317 313 300 294 305 300 299 302 301 300 302 303 301 300 297 294 294 299 300 303 303 298 301 299 294 287 285 286 285
310 310 310 311 311 311 311 310 309 308 308 307 306 305 310 315 318 320 315 305 293 300 301 305 301 301 297 300 300 301 300 297 302 300 296 292 290 299 303 299 296 296 295 288 280 283 286
309 309 310 310 311 311 311 309 308 307 306 305 304 316 314 319 322 317 307 296 297 301 303 300 300 296 296 300 300 299 298 297 299 300 293 292 292 302 302 303 301 297 293 297 290 291 286
308 309 309 310 310 311 311 309 308 307 306 304 305 314 315 324 321 313 302 296 300 305 304 301 294 297 293 296 296 297 297 301 299 302 302 297 290 298 300 302 302 298 300 290 292 282 281
309 309 309 309 309 310 310 309 308 307 305 304 308 311 317 321 318 306 296 298 302 306 304 298 295 295 296 294 295 294 295 299 301 300 302 299 295 294 298 296 294 295 294 294 293 291 284
309 309 309 309 309 309 310 309 308 306 304 304 308 303 317 317 301 304 300 303 301 302 304 301 300 298 296 296 295 295 295 298 302 302 297 300 296 290 293 299 300 298 294 294 288 286 289
309 308 308 309 309 309 310 308 307 306 304 300 301 305 317 312 296 299 302 301 301 300 299 298 297 299 300 297 293 296 297 301 302 301 298 300 294 287 289 294 298 293 294 294 293 293 288
309 309 308 308 308 309 310 308 307 305 304 303 303 298 307 307 306 300 298 297 296 301 300 301 299 300 298 296 298 295 296 300 302 302 303 301 294 290 285 288 293 290 293 294 291 286 289
309 309 308 308 308 308 310 308 307 305 304 304 305 301 303 295 298 298 299 298 296 295 300 299 297 297 296 292 293 292 296 297 299 303 301 297 290 292 292 293 292 291 291 292 290 290 287
309 309 308 307 307 308 309 308 306 305 303 304 297 296 299 296 300 299 298 296 295 296 295 293 293 295 295 292 293 290 293 294 294 298 297 297 289 292 289 292 291 289 291 291 291 292 293
309 309 307 307 305 305 308 308 305 305 304 301 303 302 297 295 297 296 295 295 295 296 296 297 295 293 292 294 296 297 297 297 296 293 293 292 290 288 284 289 289 284 290 292 293 295 294
310 309 308 306 304 304 306 308 305 303 302 301 302 299 294 291 295 295 295 295 294 294 292 294 296 293 297 301 299 297 296 296 297 296 297 291 290 289 285 287 279 290 297 297 295 296 297
310 309 308 307 305 305 306 308 304 303 302 300 302 299 294 290 294 293 295 294 295 295 294 293 296 299 301 297 291 290 292 295 295 298 298 297 293 288 284 284 288 290 294 294 292 290 298
311 310 308 307 305 304 305 307 305 303 302 301 301 303 295 291 292 296 293 294 291 290 291 295 300 303 300 294 292 286 285 290 290 291 298 297 295 290 288 281 279 292 296 300 299 289 299
310 310 309 307 305 305 305 306 308 304 302 301 300 305 295 290 296 297 292 291 294 291 289 295 297 297 300 293 289 288 288 293 288 287 289 290 289 284 286 284 288 297 300 302 287 290 300
309 309 309 307 305 305 305 306 306 306 303 301 301 303 296 293 296 299 299 293 294 293 290 295 295 296 295 290 290 290 289 291 290 292 291 289 288 287 287 285 283 299 298 291 296 300 300
309 309 309 308 306 305 305 305 303 307 303 302 296 304 303 294 295 300 300 299 296 297 295 296 295 295 296 292 293 293 290 291 291 286 296 289 294 290 291 291 301 302 299 302 301 299 299
Wind_Speed
17 17 17 18 18 18 17 18 17 17 17 17 17 17 17 17 16 16 15 15 15 14 14 14 13 12 11 10 8 12 12 9 9 12 16 10 9 13 15 17 19 21 21 20 20 19 19
18 18 18 19 18 18 17 19 18 18 17 17 17 16 17 16 16 16 16 15 14 15 15 14 12 10 8 11 15 13 11 11 13 11 11 7 10 9 11 15 17 18 16 19 14 19 21
19 19 19 18 18 18 19 20 20 19 18 18 16 17 17 17 17 16 16 15 14 15 15 13 9 8 11 17 3 13 11 10 9 7 8 10 6 11 12 14 13 14 19 19 19 17 21
19 20 19 19 19 19 22 21 21 20 20 18 17 16 17 17 17 17 17 17 16 14 13 12 8 9 9 11 5 8 11 10 7 8 9 11 10 13 14 15 17 18 16 18 18 22 23
19 20 20 20 20 20 21 22 21 21 20 20 19 17 17 17 16 16 16 17 18 12 9 8 7 10 11 5 10 10 11 11 9 6 9 8 8 13 14 14 14 15 17 22 23 22 19
20 20 21 21 22 20 20 21 21 22 21 21 19 17 17 17 16 16 16 15 9 3 7 10 12 10 9 11 10 9 9 9 6 10 9 11 11 12 13 12 14 18 20 15 18 12 15
19 20 21 22 22 22 22 22 22 22 22 22 21 19 18 16 16 13 14 6 7 8 13 16 3 12 3 1 2 8 9 8 10 11 12 14 12 13 16 17 18 16 17 17 21 21 17
18 20 20 23 24 23 22 22 23 23 22 22 22 20 19 17 16 11 8 9 8 8 11 17 18 13 7 3 8 12 13 11 12 13 15 14 14 15 16 16 18 14 17 19 20 20 18
19 19 20 21 22 24 23 23 23 23 22 22 21 20 19 17 14 7 13 6 7 9 9 15 13 13 12 12 13 10 14 12 15 15 15 16 16 17 9 15 16 15 17 19 21 20 22
18 19 20 19 20 22 24 24 25 24 24 23 22 20 18 17 5 8 5 6 9 6 7 11 8 9 11 12 15 16 10 14 14 18 17 16 16 16 16 12 14 17 16 17 17 18 15
17 18 19 19 19 21 23 24 25 25 25 25 23 22 19 8 12 9 9 8 9 4 7 7 12 8 8 13 3 11 11 12 16 17 18 17 16 17 17 15 16 19 16 16 20 20 21
18 19 18 19 20 20 22 23 24 25 24 25 25 22 21 6 8 13 8 7 6 7 8 9 7 8 11 14 15 11 10 12 12 18 19 22 21 23 22 20 16 18 16 17 18 18 17
17 18 19 19 19 20 21 23 24 25 26 25 25 24 14 10 9 11 9 7 7 8 4 5 4 10 12 13 16 18 17 18 15 18 18 22 24 25 23 25 22 21 17 14 17 14 15
16 16 17 19 20 20 21 23 24 26 27 28 28 22 9 9 12 8 7 8 9 13 13 8 4 12 16 17 17 17 18 18 18 20 18 20 20 20 17 16 19 21 18 11 16 15 17
16 16 16 18 20 21 21 23 24 26 29 28 31 3 6 11 9 4 7 9 12 16 13 11 16 18 20 16 18 16 11 16 17 15 19 19 26 22 19 17 14 17 19 18 18 13 12
13 17 16 16 18 21 22 24 25 27 30 28 9 9 10 10 4 4 7 13 21 22 12 9 16 14 20 18 17 17 14 10 9 13 9 16 22 20 21 21 17 16 16 15 9 7 18
12 14 17 14 16 18 20 22 25 28 31 34 5 6 6 4 3 5 9 14 17 17 13 11 17 19 20 20 20 21 22 20 17 22 15 16 17 17 21 19 21 13 18 18 16 13 16
12 12 15 14 15 16 16 20 22 24 31 11 6 6 7 4 6 8 12 14 12 17 16 15 17 19 20 19 20 20 20 19 18 23 18 17 13 16 18 23 21 19 18 17 16 12 12
11 11 13 12 14 16 14 17 21 20 18 8 8 9 5 4 6 8 17 16 22 20 12 14 16 18 21 20 20 19 18 16 21 18 12 8 7 11 13 18 15 7 18 20 15 12 18
12 10 11 12 11 15 14 15 19 21 16 7 6 5 3 5 8 8 12 17 17 21 21 17 15 13 17 17 17 18 20 20 22 20 9 4 13 18 16 22 21 11 19 12 11 9 14
13 11 10 10 9 12 12 14 17 22 23 5 5 5 4 6 10 15 11 20 23 19 17 15 15 17 19 17 18 20 20 21 21 18 4 2 14 19 19 22 24 24 25 21 18 18 19
13 12 10 10 9 11 11 12 15 20 28 3 6 7 9 12 11 13 10 11 22 17 19 19 19 18 18 17 17 20 21 18 18 19 19 11 5 16 20 19 25 28 26 27 27 23 28
13 12 11 9 8 10 10 9 12 16 15 5 8 8 8 9 13 12 9 12 22 24 16 16 23 20 18 19 19 18 19 20 18 17 17 16 14 16 19 19 20 14 18 28 20 20 22
14 13 12 10 8 10 10 7 7 10 11 2 3 3 7 11 11 12 18 14 18 19 23 22 17 17 11 15 17 17 22 20 18 16 13 13 14 11 14 15 19 19 5 8 11 11 16
15 15 13 12 10 10 10 7 2 3 4 1 3 2 4 8 9 15 14 13 17 17 17 20 15 8 12 12 11 11 14 10 11 1 7 9 11 5 6 10 19 21 9 9 7 14 14
17 16 15 13 11 11 10 9 5 3 2 2 3 1 3 6 6 4 15 11 12 11 14 15 7 4 6 9 11 14 8 12 6 4 4 6 5 3 8 5 7 8 4 11 10 12 16
16 17 17 15 14 13 11 10 9 7 5 2 2 1 2 5 10 8 6 6 6 10 9 8 12 9 2 5 8 7 5 8 5 6 4 3 3 5 9 8 9 14 16 18 11 10 22
15 16 17 17 16 14 13 11 9 10 8 3 2 1 3 4 12 19 12 8 10 10 9 12 8 6 7 3 4 4 5 5 6 8 6 2 4 2 3 5 6 8 7 8 12 18 22
14 15 16 17 18 15 14 12 12 9 11 8 3 2 3 5 9 17 18 18 21 22 11 8 8 7 5 4 4 6 8 6 9 5 7 4 1 3 5 6 15 17 16 14 19 20 19
Wind_Direction
1 359 357 353 350 348 347 345 340 339 337 334 332 329 327 325 320 320 317 313 309 303 301 299 301 315 303 233 258 141 144 175 224 239 249 269 268 253 250 252 252 254 251 258 261 265 266
2 359 355 351 349 348 349 343 343 340 337 335 331 328 324 321 317 315 311 307 299 295 290 289 293 303 252 257 115 145 185 181 241 234 269 282 281 331 315 290 282 290 278 278 276 275 260
358 356 355 352 349 349 347 344 340 339 337 334 330 327 323 318 315 311 306 300 298 291 278 270 273 271 262 248 325 152 214 222 243 276 285 274 287 296 292 289 270 283 268 271 269 262 266
358 354 352 353 350 348 346 344 343 341 338 334 330 326 321 318 313 309 306 303 300 288 264 254 251 256 263 221 244 216 204 235 245 254 264 295 295 280 278 285 284 276 265 267 260 247 240
356 355 353 352 351 349 348 345 343 341 339 336 332 326 320 313 308 304 303 303 299 292 240 218 229 221 251 116 220 238 238 237 209 234 257 266 282 271 275 260 261 247 256 258 262 248 246
354 353 354 350 351 350 347 347 344 342 340 338 333 326 320 313 306 303 300 289 319 251 219 203 259 254 256 236 191 229 222 245 260 262 248 235 243 249 243 242 257 269 266 285 273 250 250
353 352 351 351 351 349 345 346 346 344 341 339 336 330 321 311 305 309 310 206 204 200 232 250 212 244 276 340 72 226 227 213 244 250 260 257 241 243 254 258 260 287 296 298 294 300 308
349 350 349 351 350 347 345 344 344 343 342 340 337 332 323 316 308 309 282 263 27 311 294 251 238 249 265 273 248 223 220 217 231 246 252 237 250 258 259 269 285 296 284 280 283 280 279
345 347 347 347 349 348 345 344 343 341 341 339 336 333 328 320 315 270 234 4 303 305 275 281 214 229 225 217 239 237 203 228 247 257 250 262 275 293 280 287 285 261 263 272 278 286 288
342 342 344 343 343 348 344 344 343 341 340 339 338 334 330 325 291 262 250 346 311 13 274 203 194 228 209 199 242 238 243 220 245 251 265 270 283 276 292 261 270 271 276 286 294 289 280
342 340 340 339 342 343 345 342 342 339 338 338 336 334 329 322 312 292 359 319 339 254 286 154 145 92 191 209 92 199 224 230 251 269 276 266 265 277 256 247 271 281 292 296 296 288 288
338 339 338 337 341 342 342 342 341 337 336 335 332 331 332 248 222 262 325 334 260 239 255 157 152 211 223 218 246 263 187 224 267 282 278 276 278 279 272 275 259 256 290 277 273 273 260
334 336 337 337 339 340 341 340 340 337 332 330 326 318 313 306 288 341 327 269 253 246 134 231 201 210 234 249 250 222 229 235 238 253 256 261 256 242 242 255 247 253 247 264 257 248 252
327 332 337 336 337 339 340 341 339 337 331 328 320 310 244 240 284 321 288 252 253 278 336 24 335 290 272 281 269 254 252 255 250 263 260 271 272 274 294 273 257 258 247 254 271 279 281
325 325 336 336 335 338 340 340 341 338 332 332 312 200 236 222 237 301 274 246 252 274 341 339 327 298 281 275 258 261 270 283 292 289 284 295 288 295 264 280 268 251 240 260 283 311 288
324 320 329 334 335 337 338 341 341 341 336 334 314 285 241 141 158 252 256 256 289 292 311 319 299 303 294 297 308 300 271 254 274 287 269 284 293 292 297 294 262 276 292 274 257 263 269
312 316 319 331 336 336 336 340 342 343 340 323 273 254 100 159 164 241 254 272 291 322 348 318 297 294 295 302 303 297 294 293 302 296 283 276 275 279 285 272 271 253 236 269 263 241 252
302 310 311 329 331 332 333 339 343 349 340 343 303 283 128 170 248 248 253 284 326 310 302 288 287 286 281 286 287 288 295 300 308 293 279 297 305 288 264 288 293 271 273 256 258 248 232
290 299 306 318 331 325 330 344 340 348 8 321 299 289 155 214 269 313 330 326 330 303 318 317 304 305 300 292 291 288 290 302 301 298 299 310 232 283 293 290 265 8 321 310 323 324 267
282 289 300 312 327 322 329 348 337 338 350 317 282 303 128 209 259 318 339 319 311 318 301 295 288 296 299 289 283 285 292 288 285 289 103 336 283 269 270 278 293 300 278 260 243 289 295
275 281 288 298 315 319 329 344 340 336 337 298 267 320 16 299 324 324 330 311 306 304 318 331 314 306 295 302 307 300 300 306 311 324 94 289 265 261 272 298 298 289 288 277 230 236 249
264 270 274 284 310 324 333 343 345 341 335 230 338 343 346 303 291 299 308 305 297 314 329 316 299 308 305 301 298 301 304 302 299 306 311 168 227 267 274 276 272 279 289 274 271 250 238
255 256 261 275 306 312 322 336 348 359 346 349 358 348 316 291 296 283 320 323 309 315 312 318 314 311 304 305 316 313 304 287 282 280 281 289 291 291 288 291 300 291 271 276 284 306 287
252 247 247 247 265 287 304 314 345 19 24 327 303 296 282 279 290 304 322 321 315 319 307 298 292 283 313 344 317 290 269 262 255 251 246 258 266 278 284 291 273 277 313 330 296 303 356
250 243 237 235 247 269 286 282 306 10 18 311 304 307 290 288 296 299 301 322 308 293 294 305 299 2 352 317 293 273 283 251 232 16 257 258 257 297 262 267 279 287 17 354 21 305 325
254 245 232 225 236 260 269 269 210 212 302 284 277 54 269 294 251 317 309 309 295 324 296 309 12 50 302 281 280 262 293 306 117 162 82 73 38 217 258 273 285 41 118 260 248 258 2
254 247 235 222 228 249 256 257 226 203 215 246 284 308 249 264 268 261 292 300 292 284 299 307 335 311 236 292 300 285 300 328 5 319 185 200 187 218 244 243 273 29 351 331 279 330 330
258 249 239 229 226 236 242 240 259 203 201 209 272 283 172 256 287 281 270 252 279 277 277 330 314 14 282 315 298 331 319 339 317 312 324 174 293 252 220 247 269 22 352 7 313 327 329
261 255 244 231 225 230 234 230 252 233 192 202 255 217 200 243 279 309 281 265 250 252 291 295 303 305 352 324 349 329 309 306 312 296 332 16 25 269 288 313 316 5 353 345 338 320 321